N4ASP-13 Weather Reports


Display with metric or nautical units.
time (UTC)temp
F
wind
direction
speed
MPH
gust
MPH
rain 1hr
in
rain 24hr
in
rain mn
in
humidity
%
barometer
mb
20260504181418 73 91 0.0 0.0 0.00 0.00 0.00 45 1015.8
20260504181319 73 185 0.0 0.0 0.00 0.00 0.00 45 1015.8
20260504181215 73 298 0.0 0.0 0.00 0.00 0.00 45 1015.7
20260504181114 73 271 0.0 0.0 0.00 0.00 0.00 44 1015.7
20260504181015 73 244 0.0 0.0 0.00 0.00 0.00 46 1015.7
20260504180913 73 312 0.0 0.0 0.00 0.00 0.00 47 1015.7
20260504180813 73 26 0.0 0.0 0.00 0.00 0.00 46 1015.7
20260504180709 73 143 0.0 0.0 0.00 0.00 0.00 46 1015.7
20260504180607 72 224 0.0 0.0 0.00 0.00 0.00 44 1015.7
20260504180507 72 243 0.0 0.0 0.00 0.00 0.00 45 1015.8
20260504180409 72 48 0.0 0.0 0.00 0.00 0.00 45 1015.7
20260504180307 72 273 0.0 0.0 0.00 0.00 0.00 46 1015.7
20260504180205 72 355 0.0 0.0 0.00 0.00 0.00 47 1015.7
20260504180105 72 355 0.0 0.0 0.00 0.00 0.00 45 1015.7
20260504180005 72 117 0.0 0.0 0.00 0.00 0.00 45 1015.8
20260504175905 72 342 0.0 0.0 0.00 0.00 0.00 44 1015.8
20260504175802 72 341 0.0 0.0 0.00 0.00 0.00 45 1015.8
20260504175704 72 341 0.0 0.0 0.00 0.00 0.00 46 1015.8
20260504175601 71 341 0.0 0.0 0.00 0.00 0.00 46 1015.8
20260504175500 71 341 0.0 0.0 0.00 0.00 0.00 44 1015.7
20260504175401 71 327 0.0 0.0 0.00 0.00 0.00 44 1015.8
20260504175301 72 313 0.0 0.0 0.00 0.00 0.00 45 1015.7
20260504175202 72 296 0.0 0.0 0.00 0.00 0.00 44 1015.8
20260504175059 72 315 0.0 0.0 0.00 0.00 0.00 47 1015.8
20260504174958 72 334 0.0 0.0 0.00 0.00 0.00 45 1015.9
20260504174858 72 227 0.0 0.0 0.00 0.00 0.00 45 1015.9
20260504174759 71 166 0.0 0.0 0.00 0.00 0.00 45 1015.9
20260504174659 71 178 0.0 0.0 0.00 0.00 0.00 46 1015.9
20260504174558 71 317 0.0 0.0 0.00 0.00 0.00 46 1015.9
20260504174453 71 309 0.0 0.0 0.00 0.00 0.00 45 1015.9
20260504174351 71 278 0.0 0.0 0.00 0.00 0.00 44 1015.9
20260504174251 71 163 0.0 0.0 0.00 0.00 0.00 45 1015.9
20260504174150 71 169 0.0 0.0 0.00 0.00 0.00 46 1016.0
20260504174052 71 67 0.0 0.0 0.00 0.00 0.00 47 1015.9
20260504173944 71 302 0.0 0.0 0.00 0.00 0.00 45 1015.9
20260504173844 71 312 0.0 0.0 0.00 0.00 0.00 45 1016.0
20260504173744 71 317 0.0 0.0 0.00 0.00 0.00 45 1016.0
20260504173645 71 169 0.0 0.0 0.00 0.00 0.00 46 1015.9
20260504173545 71 237 0.0 0.0 0.00 0.00 0.00 44 1016.0
20260504173441 71 224 0.0 0.0 0.00 0.00 0.00 45 1015.9
20260504173338 71 212 0.0 0.0 0.00 0.00 0.00 46 1016.0
20260504173238 71 44 0.0 0.0 0.00 0.00 0.00 46 1016.0
20260504173139 71 324 0.0 0.0 0.00 0.00 0.00 46 1016.0
20260504173038 71 336 0.0 0.0 0.00 0.00 0.00 47 1016.0
20260504172939 71 281 0.0 0.0 0.00 0.00 0.00 45 1016.0
20260504172838 71 329 0.0 0.0 0.00 0.00 0.00 45 1015.9
20260504172737 71 311 0.0 0.0 0.00 0.00 0.00 45 1016.0
20260504172636 71 331 0.0 0.0 0.00 0.00 0.00 45 1016.1
20260504172536 71 302 0.0 0.0 0.00 0.00 0.00 45 1016.0
20260504172434 71 288 0.0 0.0 0.00 0.00 0.00 45 1016.1
20260504172335 71 296 0.0 0.0 0.00 0.00 0.00 44 1016.1
20260504172232 72 286 0.0 0.0 0.00 0.00 0.00 44 1016.0
20260504172133 72 225 0.0 0.0 0.00 0.00 0.00 46 1016.1
20260504172033 71 169 0.0 0.0 0.00 0.00 0.00 44 1016.0
20260504171932 71 199 0.0 0.0 0.00 0.00 0.00 45 1016.0
20260504171833 71 82 0.0 0.0 0.00 0.00 0.00 46 1016.0
20260504171734 71 128 0.0 0.0 0.00 0.00 0.00 46 1016.0
20260504171630 71 297 0.0 0.0 0.00 0.00 0.00 46 1015.9
20260504171532 71 277 0.0 0.0 0.00 0.00 0.00 45 1016.0
20260504171430 71 82 0.0 0.0 0.00 0.00 0.00 45 1016.0
20260504171332 71 321 0.0 0.0 0.00 0.00 0.00 46 1016.0
20260504171228 71 346 0.0 0.0 0.00 0.00 0.00 44 1016.0
20260504171126 71 299 0.0 0.0 0.00 0.00 0.00 45 1016.1
20260504171026 71 167 0.0 0.0 0.00 0.00 0.00 45 1016.1
20260504170925 71 301 0.0 0.0 0.00 0.00 0.00 45 1016.0
20260504170825 71 355 0.0 0.0 0.00 0.00 0.00 45 1016.0
20260504170720 71 329 0.0 0.0 0.00 0.00 0.00 47 1016.1
20260504170621 71 328 0.0 0.0 0.00 0.00 0.00 47 1016.0
20260504170521 71 346 0.0 0.0 0.00 0.00 0.00 47 1016.0
20260504170421 70 346 0.0 0.0 0.00 0.00 0.00 48 1016.0
20260504170319 70 281 0.0 0.0 0.00 0.00 0.00 49 1016.1
20260504170219 70 207 0.0 0.0 0.00 0.00 0.00 47 1016.1
20260504170117 70 187 0.0 0.0 0.00 0.00 0.00 48 1016.0
20260504160420 68 283 0.0 0.0 0.00 0.00 0.00 47 1016.9
20260504160319 68 306 0.0 0.0 0.00 0.00 0.00 50 1016.7
20260504160220 68 319 0.0 0.0 0.00 0.00 0.00 50 1016.9
20260504160119 68 321 0.0 0.0 0.00 0.00 0.00 50 1016.9
20260504151107 66 334 0.0 0.0 0.00 0.00 0.00 46 1017.8
20260504151008 66 315 0.0 0.0 0.00 0.00 0.00 47 1017.8
20260504150907 66 298 0.0 0.0 0.00 0.00 0.00 46 1017.8
20260504150808 66 355 0.0 0.0 0.00 0.00 0.00 48 1017.8
20260504150707 66 308 0.0 0.0 0.00 0.00 0.00 46 1017.9
20260504150606 66 299 0.0 0.0 0.00 0.00 0.00 47 1017.8
20260504150508 66 294 0.0 0.0 0.00 0.00 0.00 46 1017.7
20260504150408 66 257 0.0 0.0 0.00 0.00 0.00 47 1017.8
20260504150308 66 303 0.0 0.0 0.00 0.00 0.00 47 1017.8
20260504150207 66 308 0.0 0.0 0.00 0.00 0.00 47 1017.7
20260504150107 66 275 0.0 0.0 0.00 0.00 0.00 46 1017.7
20260504141258 63 218 2.0 6.0 0.00 0.00 0.00 49 1017.4
20260504141158 63 219 2.0 6.0 0.00 0.00 0.00 49 1017.3
20260504141058 63 215 2.0 6.0 0.00 0.00 0.00 48 1017.2
20260504140959 63 212 3.0 6.0 0.00 0.00 0.00 48 1017.2
20260504140859 63 211 3.0 6.0 0.00 0.00 0.00 49 1017.3
20260504140759 63 294 3.0 7.0 0.00 0.00 0.00 47 1017.2
20260504140659 62 276 3.0 7.0 0.00 0.00 0.00 48 1017.3
20260504140559 62 275 3.0 7.0 0.00 0.00 0.00 49 1017.3
20260504140459 63 294 3.0 7.0 0.00 0.00 0.00 47 1017.2
20260504140359 63 290 2.0 7.0 0.00 0.00 0.00 48 1017.4
20260504140259 62 307 2.0 7.0 0.00 0.00 0.00 49 1017.2
20260504140200 62 305 2.0 7.0 0.00 0.00 0.00 50 1017.3
20260504130749 61 261 0.0 0.0 0.00 0.00 0.00 51 1017.0
20260504130650 61 349 0.0 1.0 0.00 0.00 0.00 51 1016.9
20260504130550 61 278 0.0 1.0 0.00 0.00 0.00 50 1016.9
20260504130450 61 283 0.0 1.0 0.00 0.00 0.00 51 1016.9
20260504130350 61 284 0.0 1.0 0.00 0.00 0.00 51 1016.9
20260504130247 61 233 0.0 1.0 0.00 0.00 0.00 52 1016.7
20260504130147 60 298 0.0 3.0 0.00 0.00 0.00 55 1016.7
20260504120318 57 336 1.0 3.0 0.00 0.00 0.00 57 1016.6
20260504120214 57 336 1.0 3.0 0.00 0.00 0.00 56 1016.6
20260504120115 57 336 1.0 3.0 0.00 0.00 0.00 57 1016.7
20260504110659 52 242 0.0 2.0 0.00 0.00 0.00 60 1016.4
20260504110549 52 242 0.0 2.0 0.00 0.00 0.00 59 1016.4
20260504110451 52 248 0.0 2.0 0.00 0.00 0.00 59 1016.4
20260504110349 52 248 0.0 2.0 0.00 0.00 0.00 59 1016.4
20260504110249 52 248 0.0 2.0 0.00 0.00 0.00 59 1016.4
20260504110149 52 248 0.0 2.0 0.00 0.00 0.00 59 1016.4
20260504100532 53 274 3.0 9.0 0.00 0.00 0.00 58 1016.4
20260504100426 53 290 4.0 9.0 0.00 0.00 0.00 58 1016.4
20260504100326 53 307 4.0 9.0 0.00 0.00 0.00 57 1016.3
20260504100225 53 307 4.0 9.0 0.00 0.00 0.00 57 1016.4
20260504100124 53 304 5.0 9.0 0.00 0.00 0.00 57 1016.5
20260504081958 51 225 0.0 2.0 0.00 0.00 0.00 52 1016.3
20260504081856 51 225 0.0 2.0 0.00 0.00 0.00 52 1016.2
20260504081758 51 225 0.0 2.0 0.00 0.00 0.00 53 1016.2
20260504081651 51 225 0.0 2.0 0.00 0.00 0.00 52 1016.3
20260504081550 51 225 0.0 2.0 0.00 0.00 0.00 52 1016.3
20260504081451 51 225 0.0 2.0 0.00 0.00 0.00 52 1016.3
20260504081350 51 225 0.0 2.0 0.00 0.00 0.00 53 1016.3
20260504081247 51 225 0.0 2.0 0.00 0.00 0.00 52 1016.3
20260504081146 51 225 0.0 2.0 0.00 0.00 0.00 52 1016.3
20260504081046 51 225 0.0 2.0 0.00 0.00 0.00 52 1016.3
20260504080944 51 225 0.0 2.0 0.00 0.00 0.00 52 1016.3
20260504080844 51 225 0.0 2.0 0.00 0.00 0.00 52 1016.3
20260504080742 51 225 0.0 2.0 0.00 0.00 0.00 52 1016.2
20260504080642 50 225 0.0 2.0 0.00 0.00 0.00 53 1016.3
20260504080550 51 225 0.0 2.0 0.00 0.00 0.00 53 1016.3
20260504080439 50 225 0.0 2.0 0.00 0.00 0.00 52 1016.2
20260504080343 51 225 0.0 2.0 0.00 0.00 0.00 52 1016.2
20260504080235 51 225 0.0 2.0 0.00 0.00 0.00 52 1016.3
20260504080130 50 225 0.0 2.0 0.00 0.00 0.00 53 1016.2
20260504070412 51 205 1.0 2.0 0.00 0.00 0.00 64 1016.5
20260504070308 51 205 1.0 2.0 0.00 0.00 0.00 64 1016.3
20260504070210 51 205 1.0 2.0 0.00 0.00 0.00 64 1016.4
20260504070108 51 205 1.0 2.0 0.00 0.00 0.00 65 1016.3
20260504060212 51 201 0.0 0.0 0.00 0.00 0.00 61 1016.3
20260504060109 51 201 0.0 0.0 0.00 0.00 0.00 61 1016.4
20260504050731 51 201 0.0 0.0 0.00 0.00 0.00 55 1016.7
20260504050631 51 201 0.0 0.0 0.00 0.00 0.00 55 1016.9
20260504050532 51 201 0.0 0.0 0.00 0.00 0.00 55 1016.7
20260504050432 52 201 0.0 0.0 0.00 0.00 0.00 55 1016.7
20260504050332 52 201 0.0 0.0 0.00 0.00 0.00 55 1016.9
20260504050231 52 201 0.0 0.0 0.00 0.00 0.00 55 1016.7
20260504050131 52 201 0.0 0.0 0.00 0.00 0.00 56 1016.7
20260504045931 52 201 0.0 1.0 0.00 0.00 0.00 55 1016.7
20260504045831 52 201 0.0 1.0 0.00 0.00 0.00 56 1016.7
20260504045732 52 201 0.0 1.0 0.00 0.00 0.00 56 1016.7
20260504045631 52 201 0.0 1.0 0.00 0.00 0.00 56 1016.7
20260504045531 52 201 0.0 1.0 0.00 0.00 0.00 56 1016.7
20260504045432 52 201 0.0 1.0 0.00 0.00 0.00 56 1016.9
20260504045332 52 201 0.0 1.0 0.00 0.00 0.00 56 1016.6
20260504045232 52 201 0.0 1.0 0.00 0.00 0.00 56 1016.7
20260504045132 52 201 0.0 1.0 0.00 0.00 0.00 56 1016.9
20260504045031 52 201 0.0 1.0 0.00 0.00 0.00 56 1016.7
20260504044931 52 201 0.0 1.0 0.00 0.00 0.00 57 1016.7
20260504044831 52 201 0.0 1.0 0.00 0.00 0.00 57 1016.9
20260504044732 52 201 0.0 1.0 0.00 0.00 0.00 58 1016.9
20260504044632 52 201 0.0 1.0 0.00 0.00 0.00 58 1016.9
20260504044532 52 201 0.0 1.0 0.00 0.00 0.00 58 1016.6
20260504044431 52 201 0.0 1.0 0.00 0.00 0.00 58 1016.7
20260504044333 52 201 0.0 1.0 0.00 0.00 0.00 59 1016.6
20260504044232 52 201 0.0 1.0 0.00 0.00 0.00 59 1016.6
20260504044130 52 201 0.0 1.0 0.00 0.00 0.00 60 1016.7
20260504044032 52 201 0.0 1.0 0.00 0.00 0.00 60 1016.7
20260504043931 52 201 0.0 1.0 0.00 0.00 0.00 60 1016.7
20260504043832 52 201 0.0 0.0 0.00 0.00 0.00 61 1016.6
20260504043732 52 201 0.0 0.0 0.00 0.00 0.00 61 1016.7
20260504043632 52 201 0.0 0.0 0.00 0.00 0.00 62 1016.6
20260504043528 52 201 0.0 0.0 0.00 0.00 0.00 62 1016.6
20260504043427 52 201 0.0 0.0 0.00 0.00 0.00 62 1016.5
20260504043328 52 201 0.0 0.0 0.00 0.00 0.00 62 1016.4
20260504043229 52 201 0.0 0.0 0.00 0.00 0.00 62 1016.5
20260504043128 52 201 0.0 0.0 0.00 0.00 0.00 62 1016.6
20260504043028 52 201 0.0 0.0 0.00 0.00 0.00 62 1016.5
20260504042926 52 201 0.0 0.0 0.00 0.00 0.00 62 1016.5
20260504042828 52 201 0.0 0.0 0.00 0.00 0.00 62 1016.6
20260504042727 52 201 0.0 0.0 0.00 0.00 0.00 62 1016.5
20260504042628 52 201 0.0 0.0 0.00 0.00 0.00 62 1016.6
20260504042528 52 201 0.0 0.0 0.00 0.00 0.00 62 1016.5
20260504042427 53 201 0.0 0.0 0.00 0.00 0.00 62 1016.6
20260504042329 53 201 0.0 0.0 0.00 0.00 0.00 61 1016.7
20260504042227 53 201 0.0 0.0 0.00 0.00 0.00 61 1016.6
20260504042127 53 201 0.0 0.0 0.00 0.00 0.00 62 1016.6
20260504042028 53 201 0.0 0.0 0.00 0.00 0.00 61 1016.5
20260504041927 53 201 0.0 0.0 0.00 0.00 0.00 61 1016.5
20260504041828 53 201 0.0 0.0 0.00 0.00 0.00 61 1016.6
20260504041727 53 201 0.0 0.0 0.00 0.00 0.00 61 1016.6
20260504041627 53 201 0.0 0.0 0.00 0.00 0.00 61 1016.5
20260504041528 53 201 0.0 1.0 0.00 0.00 0.00 61 1016.6
20260504041427 53 201 0.0 1.0 0.00 0.00 0.00 61 1016.5
20260504041327 53 201 0.0 1.0 0.00 0.00 0.00 62 1016.5
20260504041227 53 201 0.0 1.0 0.00 0.00 0.00 61 1016.6
20260504041127 53 201 0.0 1.0 0.00 0.00 0.00 61 1016.5
20260504041027 53 201 0.0 1.0 0.00 0.00 0.00 61 1016.5
20260504040927 53 201 0.0 1.0 0.00 0.00 0.00 61 1016.6
20260504040827 53 201 0.0 1.0 0.00 0.00 0.00 61 1016.6
20260504040727 53 201 0.0 1.0 0.00 0.00 0.00 61 1016.5
20260504040627 53 201 0.0 1.0 0.00 0.00 0.00 61 1016.6
20260504040528 53 201 0.0 1.0 0.00 0.00 0.00 61 1016.5
20260504040427 53 201 0.0 1.0 0.00 0.00 0.00 61 1016.6
20260504040328 53 201 0.0 1.0 0.00 0.00 0.00 61 1016.5
20260504040206 53 201 0.0 1.0 0.00 0.00 0.00 61 1016.5
20260504040105 53 201 0.0 1.0 0.00 0.00 0.00 61 1016.4
20260504040007 53 201 0.0 1.0 0.00 0.00 0.00 61 1016.4
20260504035904 53 201 0.0 1.0 0.00 0.00 0.00 61 1016.5
20260504035759 53 201 0.0 7.0 0.00 0.00 0.00 61 1016.4
20260504035657 53 201 0.0 7.0 0.00 0.00 0.00 61 1016.4
20260504035558 53 201 0.0 7.0 0.00 0.00 0.00 61 1016.3
20260504035456 53 201 0.0 7.0 0.00 0.00 0.00 61 1016.3
20260504035356 53 201 0.0 7.0 0.00 0.00 0.00 61 1016.3
20260504035255 53 201 0.0 7.0 0.00 0.00 0.00 61 1016.3
20260504035157 53 201 0.0 7.0 0.00 0.00 0.00 61 1016.3
20260504035054 53 201 0.0 7.0 0.00 0.00 0.00 61 1016.3
20260504034953 53 201 0.0 7.0 0.00 0.00 0.00 60 1016.3
20260504034854 53 201 0.0 7.0 0.00 0.00 0.00 60 1016.3
20260504034755 53 184 0.0 2.0 0.00 0.00 0.00 60 1016.3
20260504034653 53 184 0.0 1.0 0.00 0.00 0.00 60 1016.4
20260504034554 53 184 0.0 1.0 0.00 0.00 0.00 59 1016.4
20260504034451 53 184 0.0 1.0 0.00 0.00 0.00 59 1016.4
20260504034351 53 184 0.0 1.0 0.00 0.00 0.00 58 1016.5
20260504034250 53 184 0.0 1.0 0.00 0.00 0.00 58 1016.4
20260504034148 53 184 0.0 1.0 0.00 0.00 0.00 57 1016.5
20260504034049 53 184 0.0 1.0 0.00 0.00 0.00 57 1016.4
20260504033947 53 184 0.0 1.0 0.00 0.00 0.00 56 1016.4
20260504033846 53 184 0.0 1.0 0.00 0.00 0.00 56 1016.4
20260504033744 53 184 0.0 1.0 0.00 0.00 0.00 56 1016.4
20260504033641 53 184 0.0 1.0 0.00 0.00 0.00 56 1016.4
20260504033542 53 184 0.0 1.0 0.00 0.00 0.00 55 1016.4
20260504033439 53 184 0.0 1.0 0.00 0.00 0.00 54 1016.4
20260504033341 53 184 0.0 1.0 0.00 0.00 0.00 54 1016.4
20260504033239 53 184 0.0 1.0 0.00 0.00 0.00 54 1016.4
20260504033136 53 184 0.0 1.0 0.00 0.00 0.00 53 1016.3
20260504033035 53 184 0.0 1.0 0.00 0.00 0.00 53 1016.4
20260504032935 53 184 0.0 1.0 0.00 0.00 0.00 52 1016.5
20260504032835 53 184 0.0 1.0 0.00 0.00 0.00 52 1016.4
20260504032735 53 184 0.0 1.0 0.00 0.00 0.00 53 1016.4
20260504032637 53 184 0.0 0.0 0.00 0.00 0.00 53 1016.5
20260504032527 53 184 0.0 0.0 0.00 0.00 0.00 52 1016.5
20260504032426 53 184 0.0 0.0 0.00 0.00 0.00 52 1016.6
20260504032225 53 184 0.0 0.0 0.00 0.00 0.00 52 1016.6
20260504032126 53 184 0.0 0.0 0.00 0.00 0.00 52 1016.5
20260504032026 53 184 0.0 0.0 0.00 0.00 0.00 52 1016.6
20260504031924 53 184 0.0 1.0 0.00 0.00 0.00 52 1016.6
20260504031823 53 184 0.0 2.0 0.00 0.00 0.00 52 1016.6
20260504031722 53 184 0.0 2.0 0.00 0.00 0.00 52 1016.6
20260504031620 53 184 0.0 2.0 0.00 0.00 0.00 52 1016.7
20260504031515 53 184 0.0 2.0 0.00 0.00 0.00 52 1016.7
20260504031414 53 184 0.0 2.0 0.00 0.00 0.00 52 1016.6
20260504031314 53 184 0.0 2.0 0.00 0.00 0.00 52 1016.6
20260504031212 53 184 0.0 2.0 0.00 0.00 0.00 52 1016.7
20260504031112 53 184 0.0 2.0 0.00 0.00 0.00 53 1016.6
20260504031004 53 184 0.0 2.0 0.00 0.00 0.00 53 1016.6
20260504030902 53 184 0.0 2.0 0.00 0.00 0.00 53 1016.6
20260504030801 53 184 0.0 2.0 0.00 0.00 0.00 53 1016.6
20260504030702 53 184 0.0 2.0 0.00 0.00 0.00 53 1016.6
20260504030602 53 184 0.0 2.0 0.00 0.00 0.00 54 1016.6
20260504030500 53 184 0.0 2.0 0.00 0.00 0.00 53 1016.6
20260504030359 53 185 0.0 0.0 0.00 0.00 0.00 53 1016.6
20260504030301 53 185 0.0 0.0 0.00 0.00 0.00 53 1016.7
20260504030157 53 185 0.0 0.0 0.00 0.00 0.00 53 1016.7
20260504030056 53 185 0.0 0.0 0.00 0.00 0.00 53 1016.9
20260504025955 53 185 0.0 0.0 0.00 0.00 0.00 52 1016.7
20260504025854 53 185 0.0 0.0 0.00 0.00 0.00 52 1016.7
20260504025752 53 185 0.0 0.0 0.00 0.00 0.00 52 1016.7
20260504025651 53 185 0.0 0.0 0.00 0.00 0.00 52 1016.9
20260504025551 53 185 0.0 0.0 0.00 0.00 0.00 52 1016.9
20260504025446 53 185 0.0 0.0 0.00 0.00 0.00 52 1016.7
20260504025343 53 185 0.0 0.0 0.00 0.00 0.00 52 1016.9
20260504025244 53 185 0.0 0.0 0.00 0.00 0.00 52 1016.9
20260504025143 53 185 0.0 0.0 0.00 0.00 0.00 53 1017.0
20260504025044 53 185 0.0 0.0 0.00 0.00 0.00 53 1016.9
20260504024944 53 185 0.0 0.0 0.00 0.00 0.00 53 1016.7
20260504024843 53 185 0.0 0.0 0.00 0.00 0.00 53 1017.0
20260504024743 53 185 0.0 0.0 0.00 0.00 0.00 53 1016.9
20260504024644 53 185 0.0 0.0 0.00 0.00 0.00 53 1016.9
20260504024543 53 185 0.0 0.0 0.00 0.00 0.00 53 1016.9
20260504024444 53 185 0.0 0.0 0.00 0.00 0.00 53 1016.9
20260504024343 53 185 0.0 0.0 0.00 0.00 0.00 53 1016.9
20260504024242 53 185 0.0 0.0 0.00 0.00 0.00 53 1016.9
20260504024143 53 185 0.0 0.0 0.00 0.00 0.00 53 1016.9
20260504024043 53 185 0.0 0.0 0.00 0.00 0.00 53 1016.9
20260504023944 53 185 0.0 0.0 0.00 0.00 0.00 53 1016.9
20260504023843 53 185 0.0 0.0 0.00 0.00 0.00 53 1016.7
20260504023745 53 185 0.0 0.0 0.00 0.00 0.00 53 1016.9
20260504023643 53 185 0.0 0.0 0.00 0.00 0.00 53 1016.9
20260504023544 53 185 0.0 0.0 0.00 0.00 0.00 53 1016.7
20260504023443 53 185 0.0 0.0 0.00 0.00 0.00 53 1016.7
20260504023344 53 185 0.0 0.0 0.00 0.00 0.00 53 1016.9
20260504023243 53 185 0.0 0.0 0.00 0.00 0.00 53 1016.9
20260504023144 53 185 0.0 0.0 0.00 0.00 0.00 53 1016.9
20260504023043 53 185 0.0 0.0 0.00 0.00 0.00 53 1016.9
20260504022944 53 185 0.0 0.0 0.00 0.00 0.00 53 1016.9
20260504022844 53 185 0.0 0.0 0.00 0.00 0.00 53 1016.9
20260504022743 53 185 0.0 0.0 0.00 0.00 0.00 53 1016.9
20260504022643 53 185 0.0 0.0 0.00 0.00 0.00 53 1016.9
20260504022544 53 185 0.0 0.0 0.00 0.00 0.00 53 1017.0
20260504022443 53 185 0.0 0.0 0.00 0.00 0.00 53 1016.9
20260504022342 53 185 0.0 0.0 0.00 0.00 0.00 52 1016.9
20260504022244 53 185 0.0 0.0 0.00 0.00 0.00 53 1016.9
20260504022140 53 185 0.0 0.0 0.00 0.00 0.00 53 1016.9
20260504022039 53 185 0.0 0.0 0.00 0.00 0.00 53 1016.9
20260504021940 53 185 0.0 0.0 0.00 0.00 0.00 52 1016.9
20260504021839 53 185 0.0 0.0 0.00 0.00 0.00 52 1016.9
20260504021740 53 185 0.0 0.0 0.00 0.00 0.00 52 1016.9
20260504021639 54 185 0.0 0.0 0.00 0.00 0.00 52 1016.7
20260504021539 53 185 0.0 0.0 0.00 0.00 0.00 53 1016.7
20260504021439 53 185 0.0 0.0 0.00 0.00 0.00 52 1016.7
20260504021339 54 185 0.0 0.0 0.00 0.00 0.00 52 1016.7
20260504021241 54 185 0.0 0.0 0.00 0.00 0.00 53 1016.7
20260504021139 54 185 0.0 0.0 0.00 0.00 0.00 53 1016.6
20260504021039 54 185 0.0 0.0 0.00 0.00 0.00 53 1016.6
20260504020939 54 185 0.0 0.0 0.00 0.00 0.00 53 1016.6
20260504020841 54 185 0.0 0.0 0.00 0.00 0.00 52 1016.6
20260504020740 54 185 0.0 0.0 0.00 0.00 0.00 53 1016.6
20260504020639 54 185 0.0 0.0 0.00 0.00 0.00 53 1016.6
20260504020539 54 185 0.0 0.0 0.00 0.00 0.00 52 1016.7
20260504020440 54 185 0.0 0.0 0.00 0.00 0.00 52 1016.6
20260504020339 54 185 0.0 0.0 0.00 0.00 0.00 52 1016.6
20260504020239 54 185 0.0 0.0 0.00 0.00 0.00 52 1016.6
20260504020139 54 185 0.0 0.0 0.00 0.00 0.00 52 1016.5
20260504020040 54 185 0.0 0.0 0.00 0.00 0.00 52 1016.5
20260504015940 54 185 0.0 0.0 0.00 0.00 0.00 52 1016.5
20260504015840 55 185 0.0 0.0 0.00 0.00 0.00 53 1016.6
20260504015739 55 185 0.0 0.0 0.00 0.00 0.00 52 1016.5
20260504015640 55 185 0.0 0.0 0.00 0.00 0.00 52 1016.6
20260504015539 55 185 0.0 1.0 0.00 0.00 0.00 52 1016.5
20260504015440 55 185 0.0 2.0 0.00 0.00 0.00 52 1016.5
20260504015339 55 185 0.0 2.0 0.00 0.00 0.00 52 1016.5
20260504015239 55 185 0.0 2.0 0.00 0.00 0.00 52 1016.4
20260504015140 55 185 1.0 2.0 0.00 0.00 0.00 52 1016.5
20260504015039 55 185 1.0 2.0 0.00 0.00 0.00 52 1016.4
20260504014940 55 185 1.0 2.0 0.00 0.00 0.00 52 1016.4
20260504014836 55 185 1.0 2.0 0.00 0.00 0.00 52 1016.4
20260504014736 55 185 1.0 2.0 0.00 0.00 0.00 52 1016.3
20260504014636 55 185 1.0 2.0 0.00 0.00 0.00 51 1016.2
20260504014535 55 185 0.0 2.0 0.00 0.00 0.00 51 1016.2
20260504014436 55 185 0.0 2.0 0.00 0.00 0.00 51 1016.2
20260504014336 55 185 0.0 2.0 0.00 0.00 0.00 51 1016.2
20260504014234 55 186 0.0 3.0 0.00 0.00 0.00 51 1016.1
20260504014136 55 186 0.0 3.0 0.00 0.00 0.00 52 1016.1
20260504014037 55 186 1.0 3.0 0.00 0.00 0.00 52 1016.1
20260504013935 55 186 1.0 3.0 0.00 0.00 0.00 52 1016.1
20260504013834 55 186 1.0 3.0 0.00 0.00 0.00 52 1016.1
20260504013735 55 186 1.0 3.0 0.00 0.00 0.00 51 1016.0
20260504013637 55 186 1.0 3.0 0.00 0.00 0.00 51 1016.0
20260504013534 55 186 1.0 3.0 0.00 0.00 0.00 51 1016.0
20260504013435 55 186 1.0 3.0 0.00 0.00 0.00 51 1016.0
20260504013335 55 186 1.0 3.0 0.00 0.00 0.00 51 1016.1
20260504013237 55 186 1.0 3.0 0.00 0.00 0.00 51 1016.0
20260504013135 55 186 1.0 3.0 0.00 0.00 0.00 50 1016.0
20260504013035 55 185 1.0 3.0 0.00 0.00 0.00 51 1016.0
20260504012935 55 185 1.0 3.0 0.00 0.00 0.00 51 1015.9
20260504012836 55 186 1.0 3.0 0.00 0.00 0.00 51 1015.9
20260504012736 55 186 1.0 3.0 0.00 0.00 0.00 51 1015.9
20260504012635 55 185 1.0 3.0 0.00 0.00 0.00 51 1015.9
20260504012535 55 186 1.0 3.0 0.00 0.00 0.00 51 1015.9
20260504012435 55 186 1.0 3.0 0.00 0.00 0.00 51 1016.0
20260504012336 55 186 1.0 3.0 0.00 0.00 0.00 51 1015.9
20260504012236 55 186 1.0 4.0 0.00 0.00 0.00 51 1016.0
20260504012137 55 186 1.0 4.0 0.00 0.00 0.00 51 1015.9
20260504012036 55 186 1.0 4.0 0.00 0.00 0.00 51 1016.0
20260504011936 55 186 1.0 4.0 0.00 0.00 0.00 51 1016.0
20260504011835 55 188 1.0 4.0 0.00 0.00 0.00 52 1016.0
20260504011735 55 188 1.0 4.0 0.00 0.00 0.00 51 1016.0
20260504011636 55 188 1.0 4.0 0.00 0.00 0.00 51 1016.0
20260504011531 55 188 1.0 4.0 0.00 0.00 0.00 51 1016.0
20260504011430 55 188 1.0 4.0 0.00 0.00 0.00 51 1016.0
20260504011332 55 186 1.0 4.0 0.00 0.00 0.00 51 1016.0
20260504011230 55 188 1.0 4.0 0.00 0.00 0.00 51 1015.9
20260504011132 55 188 1.0 4.0 0.00 0.00 0.00 51 1015.9
20260504011031 55 189 1.0 4.0 0.00 0.00 0.00 51 1016.0
20260504010932 55 188 1.0 4.0 0.00 0.00 0.00 51 1015.9
20260504010833 55 188 1.0 4.0 0.00 0.00 0.00 50 1015.8
20260504010732 55 184 1.0 4.0 0.00 0.00 0.00 51 1015.9
20260504010632 55 184 1.0 4.0 0.00 0.00 0.00 51 1015.8
20260504010530 55 185 1.0 4.0 0.00 0.00 0.00 51 1015.8
20260504010432 55 185 1.0 4.0 0.00 0.00 0.00 51 1015.9
20260504010331 55 185 1.0 4.0 0.00 0.00 0.00 51 1015.8
20260504010230 55 207 1.0 4.0 0.00 0.00 0.00 51 1015.7
20260504010131 55 177 1.0 3.0 0.00 0.00 0.00 52 1015.9
20260504010031 55 177 1.0 3.0 0.00 0.00 0.00 51 1015.9
20260504005931 55 177 1.0 5.0 0.00 0.00 0.00 51 1015.8
20260504005832 55 177 1.0 5.0 0.00 0.00 0.00 52 1015.8
20260504005731 55 179 2.0 5.0 0.00 0.00 0.00 51 1015.8
20260504005632 55 179 2.0 5.0 0.00 0.00 0.00 50 1015.7
20260504005531 55 175 2.0 5.0 0.00 0.00 0.00 50 1015.8
20260504005432 55 175 2.0 5.0 0.00 0.00 0.00 50 1015.8
20260504005331 56 175 2.0 5.0 0.00 0.00 0.00 50 1015.8
20260504005233 55 175 2.0 5.0 0.00 0.00 0.00 50 1015.7
20260504005131 56 175 2.0 5.0 0.00 0.00 0.00 50 1015.8
20260504005032 56 175 2.0 5.0 0.00 0.00 0.00 50 1015.8
20260504004932 56 169 2.0 6.0 0.00 0.00 0.00 50 1015.8
20260504004831 56 168 2.0 6.0 0.00 0.00 0.00 49 1015.7
20260504004730 56 168 2.0 6.0 0.00 0.00 0.00 49 1015.7
20260504004631 56 157 2.0 6.0 0.00 0.00 0.00 49 1015.7
20260504004531 56 157 2.0 6.0 0.00 0.00 0.00 49 1015.7
20260504004431 56 155 2.0 6.0 0.00 0.00 0.00 48 1015.7
20260504004331 56 155 3.0 6.0 0.00 0.00 0.00 48 1015.7
20260504004227 56 156 3.0 6.0 0.00 0.00 0.00 48 1015.7
20260504004127 56 155 3.0 6.0 0.00 0.00 0.00 48 1015.8
20260504004026 56 154 3.0 6.0 0.00 0.00 0.00 48 1015.8
20260504003927 56 161 3.0 5.0 0.00 0.00 0.00 48 1015.7
20260504003827 56 160 3.0 5.0 0.00 0.00 0.00 48 1015.6
20260504003727 56 166 2.0 5.0 0.00 0.00 0.00 48 1015.7
20260504003627 56 166 3.0 5.0 0.00 0.00 0.00 48 1015.8
20260504003527 56 166 2.0 5.0 0.00 0.00 0.00 48 1015.6
20260504003426 56 163 2.0 5.0 0.00 0.00 0.00 47 1015.8
20260504003328 56 169 2.0 4.0 0.00 0.00 0.00 47 1015.7
20260504003226 56 180 2.0 3.0 0.00 0.00 0.00 47 1015.7
20260504003123 56 182 2.0 4.0 0.00 0.00 0.00 46 1015.6
20260504003020 57 187 2.0 4.0 0.00 0.00 0.00 46 1015.6
20260504002919 57 187 2.0 4.0 0.00 0.00 0.00 46 1015.7
20260504002816 57 187 2.0 4.0 0.00 0.00 0.00 46 1015.6
20260504002718 57 188 2.0 4.0 0.00 0.00 0.00 46 1015.6
20260504002617 57 188 2.0 4.0 0.00 0.00 0.00 46 1015.7
20260504002511 57 188 2.0 4.0 0.00 0.00 0.00 45 1015.6
20260504002408 57 188 2.0 4.0 0.00 0.00 0.00 45 1015.6
20260504002307 57 189 2.0 4.0 0.00 0.00 0.00 46 1015.6
20260504002207 57 188 2.0 4.0 0.00 0.00 0.00 46 1015.6
20260504002104 57 200 2.0 4.0 0.00 0.00 0.00 45 1015.5
20260504002004 57 244 2.0 3.0 0.00 0.00 0.00 45 1015.6
20260504001902 57 245 1.0 3.0 0.00 0.00 0.00 45 1015.6
20260504001702 57 245 1.0 2.0 0.00 0.00 0.00 45 1015.6
20260504001602 57 245 1.0 2.0 0.00 0.00 0.00 45 1015.5
20260504001502 57 115 1.0 2.0 0.00 0.00 0.00 44 1015.6
20260504001400 57 115 1.0 2.0 0.00 0.00 0.00 45 1015.5
20260504001301 57 115 1.0 2.0 0.00 0.00 0.00 45 1015.5
20260504001200 57 115 1.0 2.0 0.00 0.00 0.00 44 1015.6
20260504001057 57 113 0.0 2.0 0.00 0.00 0.00 44 1015.5
20260504000950 58 141 0.0 2.0 0.00 0.00 0.00 44 1015.5
20260504000850 58 141 0.0 2.0 0.00 0.00 0.00 44 1015.6
20260504000751 58 141 0.0 2.0 0.00 0.00 0.00 44 1015.5
20260504000652 58 141 0.0 2.0 0.00 0.00 0.00 44 1015.6
20260504000551 58 141 0.0 0.0 0.00 0.00 0.00 44 1015.5
20260504000450 58 141 0.0 1.0 0.00 0.00 0.00 44 1015.5
20260504000349 58 141 0.0 2.0 0.00 0.00 0.00 44 1015.5
20260504000248 58 141 0.0 2.0 0.00 0.00 0.00 44 1015.5
20260504000148 58 141 0.0 2.0 0.00 0.00 0.00 44 1015.5
20260504000049 58 141 0.0 2.0 0.00 0.00 0.00 44 1015.5
20260503235947 58 141 1.0 2.0 0.00 0.00 0.00 44 1015.5
20260503235845 58 141 1.0 2.0 0.00 0.00 0.00 44 1015.5
20260503235744 58 141 1.0 2.0 0.00 0.00 0.00 44 1015.5
20260503235643 58 141 1.0 2.0 0.00 0.00 0.00 44 1015.6
20260503235542 58 141 1.0 2.0 0.00 0.00 0.00 44 1015.5
20260503235440 58 141 1.0 2.0 0.00 0.00 0.00 44 1015.5
20260503235339 59 141 1.0 2.0 0.00 0.00 0.00 44 1015.6
20260503235239 59 141 1.0 3.0 0.00 0.00 0.00 44 1015.6
20260503235138 59 141 1.0 3.0 0.00 0.00 0.00 44 1015.5
20260503235038 59 141 1.0 3.0 0.00 0.00 0.00 44 1015.5
20260503234940 59 87 1.0 3.0 0.00 0.00 0.00 44 1015.6
20260503234838 59 130 1.0 3.0 0.00 0.00 0.00 44 1015.5
20260503234736 59 130 1.0 4.0 0.00 0.00 0.00 44 1015.4
20260503234637 59 130 2.0 4.0 0.00 0.00 0.00 44 1015.4
20260503234536 60 130 2.0 5.0 0.00 0.00 0.00 43 1015.4
20260503234435 60 130 2.0 5.0 0.00 0.00 0.00 43 1015.4
20260503234331 60 130 2.0 5.0 0.00 0.00 0.00 44 1015.5
20260503234225 60 99 2.0 5.0 0.00 0.00 0.00 43 1015.5
20260503234124 60 140 2.0 5.0 0.00 0.00 0.00 43 1015.4
20260503234025 60 140 2.0 5.0 0.00 0.00 0.00 43 1015.4
20260503233924 60 144 2.0 5.0 0.00 0.00 0.00 41 1015.4
20260503233824 60 167 2.0 5.0 0.00 0.00 0.00 41 1015.4
20260503233720 60 167 2.0 5.0 0.00 0.00 0.00 41 1015.3
20260503233618 60 167 2.0 5.0 0.00 0.00 0.00 40 1015.4
20260503233519 61 159 2.0 5.0 0.00 0.00 0.00 40 1015.4
20260503233418 61 160 2.0 5.0 0.00 0.00 0.00 40 1015.3
20260503233318 61 159 2.0 5.0 0.00 0.00 0.00 40 1015.3
20260503233219 61 159 2.0 5.0 0.00 0.00 0.00 40 1015.3
20260503233118 61 205 2.0 4.0 0.00 0.00 0.00 39 1015.4
20260503233018 61 211 2.0 5.0 0.00 0.00 0.00 39 1015.4
20260503232919 61 161 2.0 5.0 0.00 0.00 0.00 40 1015.4
20260503232819 61 161 2.0 5.0 0.00 0.00 0.00 39 1015.4
20260503232718 61 161 2.0 5.0 0.00 0.00 0.00 40 1015.4
20260503232614 61 161 1.0 5.0 0.00 0.00 0.00 39 1015.3
20260503232512 62 161 1.0 5.0 0.00 0.00 0.00 39 1015.4
20260503232412 62 161 1.0 5.0 0.00 0.00 0.00 40 1015.4
20260503232312 62 161 1.0 5.0 0.00 0.00 0.00 39 1015.4
20260503232212 62 163 1.0 5.0 0.00 0.00 0.00 39 1015.4
20260503232111 62 159 1.0 5.0 0.00 0.00 0.00 39 1015.4
20260503232011 62 157 0.0 3.0 0.00 0.00 0.00 40 1015.3
20260503231911 62 157 0.0 3.0 0.00 0.00 0.00 39 1015.4
20260503231811 62 157 0.0 2.0 0.00 0.00 0.00 39 1015.3
20260503231711 62 157 0.0 2.0 0.00 0.00 0.00 39 1015.4
20260503231611 62 157 0.0 0.0 0.00 0.00 0.00 39 1015.3
20260503231512 62 148 0.0 0.0 0.00 0.00 0.00 39 1015.4
20260503231408 62 146 0.0 0.0 0.00 0.00 0.00 40 1015.4
20260503231307 62 144 0.0 0.0 0.00 0.00 0.00 39 1015.4
20260503231207 62 144 0.0 0.0 0.00 0.00 0.00 39 1015.4
20260503231104 62 144 0.0 0.0 0.00 0.00 0.00 40 1015.4
20260503231002 62 143 0.0 0.0 0.00 0.00 0.00 40 1015.4
20260503230904 62 143 0.0 0.0 0.00 0.00 0.00 40 1015.4
20260503230800 62 143 0.0 0.0 0.00 0.00 0.00 39 1015.4
20260503230701 62 143 0.0 0.0 0.00 0.00 0.00 39 1015.4
20260503230559 62 143 0.0 0.0 0.00 0.00 0.00 40 1015.5
20260503230457 62 143 0.0 0.0 0.00 0.00 0.00 39 1015.4
20260503230358 62 143 0.0 0.0 0.00 0.00 0.00 39 1015.4
20260503230259 62 143 0.0 0.0 0.00 0.00 0.00 38 1015.4
20260503230158 62 143 0.0 0.0 0.00 0.00 0.00 38 1015.4
20260503230059 62 144 0.0 0.0 0.00 0.00 0.00 39 1015.4
20260503225958 62 144 0.0 0.0 0.00 0.00 0.00 38 1015.4
20260503225857 62 142 0.0 0.0 0.00 0.00 0.00 38 1015.4
20260503225757 62 142 0.0 0.0 0.00 0.00 0.00 38 1015.4
20260503225656 62 140 0.0 0.0 0.00 0.00 0.00 38 1015.3
20260503225557 62 130 0.0 0.0 0.00 0.00 0.00 39 1015.4
20260503225456 62 130 0.0 0.0 0.00 0.00 0.00 38 1015.4
20260503225357 62 128 0.0 0.0 0.00 0.00 0.00 39 1015.4
20260503225257 62 183 0.0 0.0 0.00 0.00 0.00 38 1015.4
20260503225155 62 186 0.0 0.0 0.00 0.00 0.00 38 1015.4
20260503225054 62 184 0.0 0.0 0.00 0.00 0.00 38 1015.4
20260503224953 62 179 0.0 0.0 0.00 0.00 0.00 40 1015.4
20260503224850 62 179 0.0 0.0 0.00 0.00 0.00 39 1015.4
20260503224742 62 179 0.0 5.0 0.00 0.00 0.00 38 1015.4
20260503224640 62 179 1.0 5.0 0.00 0.00 0.00 38 1015.3
20260503224540 62 177 1.0 5.0 0.00 0.00 0.00 39 1015.4
20260503224440 62 174 1.0 5.0 0.00 0.00 0.00 40 1015.4
20260503224341 62 174 1.0 5.0 0.00 0.00 0.00 39 1015.4
20260503224241 62 174 1.0 6.0 0.00 0.00 0.00 38 1015.4
20260503224137 62 175 1.0 6.0 0.00 0.00 0.00 37 1015.4
20260503224038 63 142 1.0 6.0 0.00 0.00 0.00 38 1015.5
20260503223937 63 142 1.0 6.0 0.00 0.00 0.00 38 1015.4
20260503223835 63 129 1.0 6.0 0.00 0.00 0.00 38 1015.4
20260503223732 63 173 1.0 6.0 0.00 0.00 0.00 38 1015.4
20260503223633 63 328 1.0 6.0 0.00 0.00 0.00 39 1015.4
20260503223532 63 242 1.0 6.0 0.00 0.00 0.00 38 1015.5
20260503223430 63 242 1.0 6.0 0.00 0.00 0.00 37 1015.4
20260503223329 63 241 1.0 6.0 0.00 0.00 0.00 39 1015.4
20260503223221 63 192 1.0 6.0 0.00 0.00 0.00 38 1015.4
20260503223119 63 190 1.0 6.0 0.00 0.00 0.00 37 1015.5
20260503223020 64 190 1.0 6.0 0.00 0.00 0.00 37 1015.5
20260503222919 64 191 1.0 6.0 0.00 0.00 0.00 37 1015.4
20260503222819 64 191 1.0 6.0 0.00 0.00 0.00 36 1015.5
20260503222713 64 191 1.0 6.0 0.00 0.00 0.00 36 1015.4
20260503222612 64 191 2.0 6.0 0.00 0.00 0.00 36 1015.5
20260503222513 64 194 2.0 6.0 0.00 0.00 0.00 36 1015.4
20260503222413 64 190 1.0 5.0 0.00 0.00 0.00 37 1015.5
20260503222313 64 297 1.0 5.0 0.00 0.00 0.00 36 1015.5
20260503222206 64 299 1.0 5.0 0.00 0.00 0.00 36 1015.5
20260503222106 64 310 1.0 5.0 0.00 0.00 0.00 36 1015.4
20260503222007 64 291 1.0 5.0 0.00 0.00 0.00 37 1015.5
20260503221907 64 289 1.0 5.0 0.00 0.00 0.00 36 1015.5
20260503221807 64 290 1.0 5.0 0.00 0.00 0.00 35 1015.5
20260503221657 64 289 1.0 5.0 0.00 0.00 0.00 36 1015.4
20260503221557 64 171 1.0 5.0 0.00 0.00 0.00 37 1015.4
20260503221456 64 173 1.0 6.0 0.00 0.00 0.00 36 1015.5
20260503221357 64 173 1.0 6.0 0.00 0.00 0.00 35 1015.4
20260503221256 64 173 1.0 6.0 0.00 0.00 0.00 36 1015.6
20260503221157 64 171 1.0 6.0 0.00 0.00 0.00 37 1015.5
20260503221055 64 169 1.0 6.0 0.00 0.00 0.00 37 1015.5
20260503220954 64 169 2.0 6.0 0.00 0.00 0.00 37 1015.5
20260503220853 64 169 2.0 6.0 0.00 0.00 0.00 37 1015.5
20260503220751 64 169 2.0 6.0 0.00 0.00 0.00 35 1015.5
20260503220651 64 169 2.0 6.0 0.00 0.00 0.00 35 1015.5
20260503220548 64 171 1.0 6.0 0.00 0.00 0.00 36 1015.5
20260503220448 64 177 1.0 4.0 0.00 0.00 0.00 37 1015.6
20260503220347 64 178 1.0 4.0 0.00 0.00 0.00 37 1015.5
20260503220245 64 259 2.0 6.0 0.00 0.00 0.00 35 1015.5
20260503220137 64 232 2.0 6.0 0.00 0.00 0.00 35 1015.6
20260503220038 64 244 2.0 6.0 0.00 0.00 0.00 37 1015.5
20260503215939 64 123 2.0 6.0 0.00 0.00 0.00 37 1015.5
20260503215837 64 188 2.0 6.0 0.00 0.00 0.00 36 1015.6
20260503215734 64 188 2.0 6.0 0.00 0.00 0.00 36 1015.6
20260503215628 64 178 2.0 6.0 0.00 0.00 0.00 37 1015.5
20260503215528 64 175 2.0 6.0 0.00 0.00 0.00 37 1015.5
20260503215428 64 175 2.0 6.0 0.00 0.00 0.00 36 1015.5
20260503215328 64 163 2.0 5.0 0.00 0.00 0.00 37 1015.5
20260503215228 64 163 2.0 5.0 0.00 0.00 0.00 37 1015.5
20260503215127 64 119 2.0 5.0 0.00 0.00 0.00 37 1015.6
20260503215027 64 121 2.0 5.0 0.00 0.00 0.00 37 1015.6
20260503214924 64 198 2.0 5.0 0.00 0.00 0.00 37 1015.6
20260503214824 64 272 2.0 7.0 0.00 0.00 0.00 37 1015.6
20260503214723 64 272 2.0 7.0 0.00 0.00 0.00 35 1015.6
20260503214615 64 329 2.0 7.0 0.00 0.00 0.00 35 1015.7
20260503214516 64 219 2.0 7.0 0.00 0.00 0.00 35 1015.7
20260503214414 64 126 2.0 7.0 0.00 0.00 0.00 38 1015.7
20260503214313 64 131 2.0 7.0 0.00 0.00 0.00 36 1015.7
20260503214212 64 131 2.0 7.0 0.00 0.00 0.00 36 1015.7
20260503214106 64 131 2.0 7.0 0.00 0.00 0.00 36 1015.7
20260503214005 64 131 1.0 7.0 0.00 0.00 0.00 36 1015.7
20260503213906 64 129 1.0 7.0 0.00 0.00 0.00 36 1015.7
20260503213806 64 168 1.0 6.0 0.00 0.00 0.00 37 1015.7
20260503213706 64 131 0.0 6.0 0.00 0.00 0.00 36 1015.7
20260503213601 64 156 0.0 6.0 0.00 0.00 0.00 35 1015.7
20260503213500 65 163 0.0 0.0 0.00 0.00 0.00 34 1015.7
20260503213401 65 134 0.0 0.0 0.00 0.00 0.00 36 1015.7
20260503213302 65 188 0.0 3.0 0.00 0.00 0.00 35 1015.8
20260503213201 65 191 1.0 3.0 0.00 0.00 0.00 36 1015.8
20260503213050 65 157 1.0 3.0 0.00 0.00 0.00 34 1015.9
20260503212949 65 160 1.0 3.0 0.00 0.00 0.00 33 1015.8
20260503212850 65 217 1.0 3.0 0.00 0.00 0.00 33 1015.8
20260503212749 65 217 1.0 3.0 0.00 0.00 0.00 34 1015.9
20260503212651 65 188 1.0 5.0 0.00 0.00 0.00 36 1015.8
20260503212543 65 185 1.0 5.0 0.00 0.00 0.00 38 1015.9
20260503212444 65 115 1.0 5.0 0.00 0.00 0.00 35 1015.8
20260503212344 65 115 1.0 5.0 0.00 0.00 0.00 37 1015.9
20260503212244 65 103 1.0 5.0 0.00 0.00 0.00 37 1015.9
20260503212145 65 250 1.0 5.0 0.00 0.00 0.00 37 1015.8
20260503212042 65 234 1.0 5.0 0.00 0.00 0.00 38 1015.9
20260503211941 65 188 1.0 5.0 0.00 0.00 0.00 37 1015.9
20260503211842 65 190 0.0 5.0 0.00 0.00 0.00 36 1015.9
20260503211741 65 231 0.0 5.0 0.00 0.00 0.00 35 1015.8
20260503211641 65 355 0.0 3.0 0.00 0.00 0.00 35 1015.9
20260503211533 65 11 0.0 0.0 0.00 0.00 0.00 36 1016.0
20260503211432 65 11 0.0 0.0 0.00 0.00 0.00 36 1016.0
20260503211333 65 9 0.0 0.0 0.00 0.00 0.00 36 1016.1
20260503211231 64 153 0.0 0.0 0.00 0.00 0.00 37 1016.1
20260503211128 64 161 0.0 0.0 0.00 0.00 0.00 36 1016.1
20260503211027 64 281 0.0 0.0 0.00 0.00 0.00 36 1016.1
20260503210926 64 28 0.0 0.0 0.00 0.00 0.00 36 1016.0
20260503210825 64 261 0.0 0.0 0.00 0.00 0.00 35 1016.0
20260503210725 64 342 0.0 0.0 0.00 0.00 0.00 35 1016.1
20260503210623 64 237 0.0 0.0 0.00 0.00 0.00 35 1016.1
20260503210524 64 146 0.0 0.0 0.00 0.00 0.00 35 1016.0
20260503210419 64 212 0.0 0.0 0.00 0.00 0.00 34 1016.0
20260503210320 64 167 0.0 0.0 0.00 0.00 0.00 33 1016.1
20260503210219 64 173 0.0 0.0 0.00 0.00 0.00 33 1016.0
20260503210116 64 173 0.0 0.0 0.00 0.00 0.00 35 1016.0
20260503210007 64 172 0.0 0.0 0.00 0.00 0.00 36 1016.1
20260503205906 64 167 0.0 0.0 0.00 0.00 0.00 37 1016.1
20260503205807 64 173 0.0 0.0 0.00 0.00 0.00 35 1016.1
20260503205707 64 162 0.0 0.0 0.00 0.00 0.00 35 1016.1
20260503205607 64 151 0.0 0.0 0.00 0.00 0.00 36 1016.0
20260503205500 64 198 0.0 0.0 0.00 0.00 0.00 34 1016.0
20260503205400 64 182 0.0 0.0 0.00 0.00 0.00 35 1016.1
20260503205303 64 182 0.0 0.0 0.00 0.00 0.00 35 1016.1
20260503205200 64 198 0.0 0.0 0.00 0.00 0.00 36 1016.1
20260503205101 64 163 0.0 0.0 0.00 0.00 0.00 37 1016.1
20260503204957 65 140 0.0 0.0 0.00 0.00 0.00 35 1016.1
20260503204857 65 145 0.0 0.0 0.00 0.00 0.00 35 1016.0
20260503204756 65 163 0.0 0.0 0.00 0.00 0.00 34 1016.1
20260503204657 65 139 0.0 0.0 0.00 0.00 0.00 35 1016.1
20260503204555 65 196 0.0 0.0 0.00 0.00 0.00 35 1016.1
20260503204446 65 145 0.0 0.0 0.00 0.00 0.00 37 1016.1
20260503204346 65 119 0.0 0.0 0.00 0.00 0.00 35 1016.1
20260503204246 65 202 0.0 0.0 0.00 0.00 0.00 36 1016.1
20260503204147 65 150 0.0 0.0 0.00 0.00 0.00 34 1016.1
20260503204044 65 161 0.0 0.0 0.00 0.00 0.00 35 1016.1
20260503203940 65 146 0.0 0.0 0.00 0.00 0.00 35 1016.2
20260503203839 65 200 0.0 0.0 0.00 0.00 0.00 36 1016.1
20260503203738 65 107 0.0 0.0 0.00 0.00 0.00 35 1016.1
20260503203640 65 64 0.0 0.0 0.00 0.00 0.00 35 1016.2
20260503203538 65 148 0.0 0.0 0.00 0.00 0.00 33 1016.2
20260503203433 65 171 0.0 0.0 0.00 0.00 0.00 33 1016.2
20260503203331 65 98 0.0 0.0 0.00 0.00 0.00 32 1016.2
20260503203234 65 96 0.0 0.0 0.00 0.00 0.00 31 1016.2
20260503203132 65 340 0.0 0.0 0.00 0.00 0.00 31 1016.2
20260503203033 65 279 0.0 0.0 0.00 0.00 0.00 33 1016.2
20260503202922 64 93 0.0 6.0 0.00 0.00 0.00 31 1016.2
20260503202822 65 147 0.0 6.0 0.00 0.00 0.00 32 1016.3
20260503202723 65 119 0.0 6.0 0.00 0.00 0.00 32 1016.3
20260503202623 65 132 0.0 6.0 0.00 0.00 0.00 31 1016.2
20260503202523 65 144 0.0 6.0 0.00 0.00 0.00 32 1016.2
20260503202420 65 144 0.0 6.0 0.00 0.00 0.00 30 1016.2
20260503202320 64 147 0.0 6.0 0.00 0.00 0.00 31 1016.2
20260503202221 65 144 0.0 6.0 0.00 0.00 0.00 30 1016.3
20260503202118 65 66 1.0 6.0 0.00 0.00 0.00 31 1016.2
20260503202016 64 155 1.0 6.0 0.00 0.00 0.00 29 1016.3
20260503201917 64 155 2.0 9.0 0.00 0.00 0.00 30 1016.3
20260503201815 65 103 2.0 9.0 0.00 0.00 0.00 31 1016.3
20260503201713 65 306 2.0 9.0 0.00 0.00 0.00 29 1016.3
20260503201613 64 306 2.0 9.0 0.00 0.00 0.00 30 1016.4
20260503201511 64 150 3.0 9.0 0.00 0.00 0.00 30 1016.3
20260503201359 64 150 3.0 9.0 0.00 0.00 0.00 30 1016.3
20260503201300 64 142 3.0 9.0 0.00 0.00 0.00 32 1016.3
20260503201200 64 151 3.0 9.0 0.00 0.00 0.00 30 1016.4
20260503201100 64 198 3.0 9.0 0.00 0.00 0.00 29 1016.4
20260503201001 64 175 2.0 9.0 0.00 0.00 0.00 32 1016.4
20260503200854 64 248 2.0 7.0 0.00 0.00 0.00 31 1016.4
20260503200755 64 201 2.0 7.0 0.00 0.00 0.00 33 1016.5
20260503200655 64 201 1.0 7.0 0.00 0.00 0.00 30 1016.5
20260503200555 64 204 1.0 7.0 0.00 0.00 0.00 29 1016.4
20260503200454 64 196 1.0 7.0 0.00 0.00 0.00 30 1016.5
20260503200349 64 267 0.0 6.0 0.00 0.00 0.00 30 1016.5
20260503200249 64 110 0.0 3.0 0.00 0.00 0.00 30 1016.5
20260503200149 64 142 0.0 3.0 0.00 0.00 0.00 29 1016.6
20260503200049 64 141 0.0 3.0 0.00 0.00 0.00 30 1016.6
20260503195948 64 104 0.0 0.0 0.00 0.00 0.00 32 1016.6
20260503195841 64 90 0.0 0.0 0.00 0.00 0.00 30 1016.6
20260503195738 64 307 0.0 0.0 0.00 0.00 0.00 28 1016.6
20260503195638 63 306 0.0 0.0 0.00 0.00 0.00 28 1016.6
20260503195537 64 287 0.0 0.0 0.00 0.00 0.00 28 1016.7
20260503195438 64 304 0.0 0.0 0.00 0.00 0.00 28 1016.9
20260503195332 64 265 0.0 0.0 0.00 0.00 0.00 29 1016.7
20260503195232 64 300 0.0 0.0 0.00 0.00 0.00 29 1016.7
20260503195133 64 286 0.0 6.0 0.00 0.00 0.00 28 1016.7
20260503195032 64 283 0.0 6.0 0.00 0.00 0.00 31 1016.7
20260503194933 63 330 0.0 6.0 0.00 0.00 0.00 30 1016.7
20260503194829 63 293 1.0 6.0 0.00 0.00 0.00 31 1016.7
20260503194726 63 254 1.0 6.0 0.00 0.00 0.00 31 1016.6
20260503194626 63 241 1.0 6.0 0.00 0.00 0.00 31 1016.6
20260503194527 63 116 1.0 6.0 0.00 0.00 0.00 31 1016.6
20260503194428 63 170 2.0 6.0 0.00 0.00 0.00 30 1016.7
20260503194320 63 170 2.0 6.0 0.00 0.00 0.00 28 1016.7
20260503194220 63 170 2.0 6.0 0.00 0.00 0.00 30 1016.7
20260503194120 63 112 2.0 7.0 0.00 0.00 0.00 31 1016.7
20260503194018 62 110 2.0 7.0 0.00 0.00 0.00 30 1016.7
20260503193917 62 110 2.0 7.0 0.00 0.00 0.00 29 1016.7
20260503193815 62 110 2.0 7.0 0.00 0.00 0.00 28 1016.7
20260503193714 63 111 2.0 7.0 0.00 0.00 0.00 30 1016.7
20260503193611 63 119 2.0 7.0 0.00 0.00 0.00 27 1016.9
20260503193512 63 120 2.0 10.0 0.00 0.00 0.00 27 1016.9
20260503193411 63 128 2.0 10.0 0.00 0.00 0.00 28 1016.9
20260503193305 63 243 2.0 10.0 0.00 0.00 0.00 29 1016.9
20260503193204 63 287 2.0 10.0 0.00 0.00 0.00 32 1016.9
20260503193105 63 287 2.0 10.0 0.00 0.00 0.00 31 1016.9
20260503193005 63 310 3.0 10.0 0.00 0.00 0.00 31 1017.0
20260503192904 63 355 3.0 10.0 0.00 0.00 0.00 29 1017.0
20260503192758 62 342 3.0 10.0 0.00 0.00 0.00 30 1017.0
20260503192658 62 342 3.0 10.0 0.00 0.00 0.00 28 1016.9
20260503192556 62 342 3.0 10.0 0.00 0.00 0.00 29 1017.0
20260503192457 62 348 4.0 10.0 0.00 0.00 0.00 31 1016.9
20260503192354 62 298 4.0 12.0 0.00 0.00 0.00 30 1017.0
20260503192250 62 298 4.0 12.0 0.00 0.00 0.00 31 1016.9
20260503192147 62 348 4.0 12.0 0.00 0.00 0.00 32 1016.9
20260503192049 62 321 4.0 12.0 0.00 0.00 0.00 31 1017.0
20260503191948 62 313 3.0 12.0 0.00 0.00 0.00 30 1016.9
20260503191848 62 280 4.0 12.0 0.00 0.00 0.00 28 1017.0
20260503191742 62 200 4.0 12.0 0.00 0.00 0.00 30 1016.9
20260503191642 62 197 4.0 12.0 0.00 0.00 0.00 29 1017.0
20260503191542 62 303 4.0 12.0 0.00 0.00 0.00 29 1017.0
20260503191442 62 291 4.0 12.0 0.00 0.00 0.00 30 1017.1
20260503191342 62 332 3.0 9.0 0.00 0.00 0.00 29 1017.0
20260503191232 62 304 3.0 9.0 0.00 0.00 0.00 29 1017.1
20260503191132 62 314 3.0 9.0 0.00 0.00 0.00 29 1017.0
20260503191033 62 201 3.0 9.0 0.00 0.00 0.00 30 1017.1
20260503190933 62 314 3.0 9.0 0.00 0.00 0.00 31 1017.1
20260503190832 62 336 3.0 9.0 0.00 0.00 0.00 32 1017.1
20260503190727 62 333 3.0 9.0 0.00 0.00 0.00 31 1017.1
20260503190626 62 146 3.0 9.0 0.00 0.00 0.00 31 1017.1
20260503190527 62 49 3.0 9.0 0.00 0.00 0.00 31 1017.1
20260503190425 62 38 3.0 12.0 0.00 0.00 0.00 30 1017.1
20260503190327 62 319 3.0 12.0 0.00 0.00 0.00 31 1017.1
20260503190221 62 315 3.0 12.0 0.00 0.00 0.00 31 1017.2
20260503190120 62 347 3.0 12.0 0.00 0.00 0.00 34 1017.1
20260503190021 62 5 3.0 12.0 0.00 0.00 0.00 31 1017.3
20260503185921 62 349 3.0 12.0 0.00 0.00 0.00 32 1017.2
20260503185821 62 196 3.0 12.0 0.00 0.00 0.00 31 1017.2
20260503185713 62 319 3.0 12.0 0.00 0.00 0.00 30 1017.2
20260503185611 62 251 3.0 12.0 0.00 0.00 0.00 31 1017.3
20260503185510 62 234 3.0 12.0 0.00 0.00 0.00 30 1017.3
20260503185410 62 318 3.0 9.0 0.00 0.00 0.00 33 1017.3
20260503185310 62 253 3.0 9.0 0.00 0.00 0.00 31 1017.3
20260503185203 62 42 3.0 9.0 0.00 0.00 0.00 34 1017.3
20260503185103 62 355 3.0 9.0 0.00 0.00 0.00 34 1017.3
20260503185005 62 193 3.0 9.0 0.00 0.00 0.00 34 1017.4
20260503184904 62 263 3.0 9.0 0.00 0.00 0.00 32 1017.3
20260503184804 62 191 3.0 9.0 0.00 0.00 0.00 33 1017.4
20260503184657 62 169 3.0 9.0 0.00 0.00 0.00 33 1017.4
20260503184558 61 227 3.0 9.0 0.00 0.00 0.00 36 1017.4
20260503184459 61 146 4.0 9.0 0.00 0.00 0.00 37 1017.5
20260503184358 61 152 4.0 9.0 0.00 0.00 0.00 34 1017.4
20260503184258 61 281 4.0 9.0 0.00 0.00 0.00 33 1017.5
20260503184149 61 136 4.0 9.0 0.00 0.00 0.00 33 1017.5
20260503184048 61 345 5.0 10.0 0.00 0.00 0.00 34 1017.5
20260503183949 61 186 4.0 10.0 0.00 0.00 0.00 33 1017.4
20260503183848 60 245 4.0 10.0 0.00 0.00 0.00 32 1017.5
20260503183749 60 355 4.0 10.0 0.00 0.00 0.00 35 1017.5
20260503183642 61 273 4.0 10.0 0.00 0.00 0.00 34 1017.6
20260503183542 61 344 4.0 10.0 0.00 0.00 0.00 33 1017.5
20260503183443 61 329 4.0 10.0 0.00 0.00 0.00 33 1017.6
20260503183342 61 338 4.0 10.0 0.00 0.00 0.00 33 1017.5
20260503183243 61 5 4.0 10.0 0.00 0.00 0.00 33 1017.5
20260503183137 61 326 4.0 10.0 0.00 0.00 0.00 33 1017.6
20260503183035 61 329 4.0 8.0 0.00 0.00 0.00 32 1017.7
20260503182937 61 279 3.0 8.0 0.00 0.00 0.00 33 1017.7
20260503182835 61 301 4.0 9.0 0.00 0.00 0.00 37 1017.7
20260503182736 61 355 4.0 10.0 0.00 0.00 0.00 34 1017.7
20260503182629 61 121 4.0 10.0 0.00 0.00 0.00 34 1017.6
20260503182526 60 320 4.0 10.0 0.00 0.00 0.00 34 1017.7
20260503182427 60 311 4.0 10.0 0.00 0.00 0.00 33 1017.7
20260503182325 60 306 4.0 10.0 0.00 0.00 0.00 33 1017.7
20260503182227 60 306 4.0 10.0 0.00 0.00 0.00 35 1017.8
20260503182120 60 332 4.0 10.0 0.00 0.00 0.00 34 1017.8
20260503182020 60 269 4.0 10.0 0.00 0.00 0.00 33 1017.8
20260503181921 60 315 4.0 10.0 0.00 0.00 0.00 33 1017.8
20260503181820 60 321 4.0 10.0 0.00 0.00 0.00 37 1017.8
20260503181721 60 338 4.0 10.0 0.00 0.00 0.00 35 1017.9
20260503181620 60 321 4.0 10.0 0.00 0.00 0.00 34 1017.8
20260503181518 60 312 4.0 10.0 0.00 0.00 0.00 34 1017.9